Regional Weather Roundup
Issued by NWS Charleston, SC

Current Version | Previous Version | Graphics & Text | Print | Product List | Glossary On
Versions: 1 2 3 4 5 6 7 8 9 10 11 12 13 14 15 16 17 18 19 20 21 22 23 24 25 26 27 28 29 30 31 32 33 34 35 36 37 38 39 40 41 42 43 44 45 46 47 48 49 50
110
ASUS42 KCHS 252028
RWRCHS

REGIONAL WEATHER ROUNDUP
NATIONAL WEATHER SERVICE CHARLESTON SC
400 PM EDT SUN SEP 25 2016

NOTE: "FAIR" INDICATES FEW OR NO CLOUDS BELOW 12,000 FEET WITH NO
SIGNIFICANT WEATHER AND/OR OBSTRUCTIONS TO VISIBILITY.

NOT ALL STATIONS ARE QUALITY CONTROLLED. USE DATA WITH CAUTION...
ESPECIALLY DEWPOINT OBSERVATIONS.

SCZ027-030-031-034>040-042>050-252100-
...SOUTHEAST SOUTH CAROLINA...

CITY           SKY/WX    TMP DP  RH WIND       PRES   REMARKS
N CHARLESTON   MOSUNNY   87  67  51 E7        30.04F HX  90
WATERFRONT PRK   N/A     86  74  67 E9        30.03F HX  94
MOUNT PLEASANT FAIR      84  73  70 E7        30.05S HX  91
JOHNS ISLAND   FAIR      84  75  74 E16       30.04F HX  92
PINOPOLIS        N/A     84  72  65 CALM      29.99F
MONCKS CORNER  FAIR      84  68  58 NE3       30.05S
SUMMERVILLE    FAIR      88  70  55 NE5       30.05F HX  92
BEAUFORT MCAS  MOSUNNY   87  71  58 E10       30.04F HX  93
BEAUFORT ARPT  FAIR      84  70  61 E10       30.03F
HILTON HEAD IS MOSUNNY   86  73  66 NE7       30.06S HX  93
WALTERBORO     CLEAR     88  64  45 E6        30.05F
ALLENDALE      FAIR      86  66  51 E6        30.03F

...SOUTHERN MIDLANDS AND PEE DEE...

CITY           SKY/WX    TMP DP  RH WIND       PRES   REMARKS
GEORGETOWN     FAIR      82  72  69 E8        30.07S
KINGSTREE      FAIR      88  64  45 N5        30.04F
ORANGEBURG     PTSUNNY   87  66  49 S6        30.05F
BARNWELL       NOT AVBL
AIKEN          FAIR      88  63  42 NE6       30.08S
MANNING        FAIR      86  52  30 E3        30.04F
COLUMBIA       MOSUNNY   89  67  47 E9        30.04F HX  92
SUMTER         PTSUNNY   88  67  49 E3        30.03F HX  91
FLORENCE       MOSUNNY   86  69  56 S3        30.05F HX  90
MYRTLE BEACH   MOSUNNY   84  70  61 SE9       30.07F
N MYRTLE BEACH SUNNY     82  73  74 E9        30.05F

$$

GAZ063-065-086>088-099>101-113>116-118-119-134>141-150-252100-
...SOUTHEAST GEORGIA...

CITY           SKY/WX    TMP DP  RH WIND       PRES   REMARKS
SAVANNAH ARPT  PTSUNNY   89  67  47 E6        30.03F HX  92
HUNTER AAF     MOSUNNY   86  76  72 E12       30.01F HX  97
FORT STEWART   MOSUNNY   88  67  49 NE6       29.99F HX  91
STATESBORO     SUNNY     88  70  55 E5        30.03F HX  93
SYLVANIA       NOT AVBL
CLAXTON        FAIR      89  68  49 NE8       30.02S HX  93

...CSRA...CENTRAL AND FAR SOUTHEAST GEORGIA...

CITY           SKY/WX    TMP DP  RH WIND       PRES   REMARKS
THOMSON        SUNNY     92  69  45 SE7       30.08S HX  97
AUGUSTA-BUSH   MOSUNNY   89  66  46 SE6       30.02F HX  91
AUGUSTA-DANIEL MOSUNNY   90  64  42 S10       30.04F HX  91
SWAINSBORO     FAIR      90  63  40 SE8       30.03F HX  90
VIDALIA        SUNNY     91  72  52 NE10G21   30.01F HX  98
EASTMAN        FAIR      94  45  18 E6        30.02F HX  90
HAZLEHURST     FAIR      92  68  44 SW8       29.99F HX  96
ALMA           MOSUNNY   84  71  65 N8        30.00F
WAYCROSS       MOSUNNY   93  74  53 E8        29.99F HX 103
JESUP          FAIR      90  75  62 E12G17    30.00F HX 100
BAXLEY         FAIR      91  72  52 SE7       29.99F HX  98
BRUNSWICK      SUNNY     86  73  66 NE16G23   30.01F HX  93
SAINT SIMONS   SUNNY     84  70  62 NE17G23   30.01F

$$

SCZ027-028-034-036>038-045-046-048>050-GAZ119-141-252100-
...LAKE AND SUPPLEMENTAL COASTAL OBSERVATIONS...

STATION/POSITION TIME  TEMP    WIND        PRES    WAVE   SWELL
                       AIR SEA DIR/SP/G            HT/PER HT/PER/DIR
                 (UTC) (F)     (DEG/KT/KT) (MB)    (FT/S) (FT/S/D)
WINYAH BAY       1930   81      70/ 10     1017.0S
LAKE MURRAY      1930   87     230/  2/  2 1016.9F
ACE BASIN NERRS  1945   87     110/  2     1017.0F
FORT PULASKI     2000   81 82   60/ 13/ 16 1017.3
SAPELO ISLAND    2000   85      60/  9     1016.0

$$

ANZ835-935-AMZ111-154-330-350-352-354-370-450-454-472-252100-
...C-MAN AND BUOY OBSERVATIONS...

STATION/POSITION TIME  TEMP    WIND        PRES    WAVE   SWELL
                       AIR SEA DIR/SP/G            HT/PER HT/PER/DIR
                 (UTC) (F)     (DEG/KT/KT) (MB)    (FT/S) (FT/S/D)
BUOY 41004       1950   81 82   60/ 16/ 17 1016.2F   4/11   3/100/11
BUOY 41008       1950   80 82   40/ 14/ 17 1016.0F   4/11   3/120/11
FOLLY BEACH CMAN 2000   81      60/ 15/ 17 1017.7F
CAPERS NEARSHORE 2008   80 81   60/ 14/ 19 1017.2F
FRIPP NEARSHORE  2008   83 81   70/ 14/ 17 1016.8F


STATION/POSITION TIME  TEMP    WIND        PRES    WAVE   SWELL
                       AIR SEA DIR/SP/G            HT/PER HT/PER/DIR
                 (UTC) (F)     (DEG/KT/KT) (MB)    (FT/S) (FT/S/D)
5E ST. MARYS GA  2001      83                N/A     3/12   2/110/12
FRYING PAN BUOY  2010   80 82   50/ 16/ 19 1017.0
BUOY 41025       1950   74 85   30/ 17/ 21 1018.6F   5/ 8   3/ 60/ 8
CAPE LOOKOUT NC  2000   75      40/ 18/ 21 1018.6F
BUOY 41002       1950   82 84   50/ 12/ 14 1016.2S   3/ 9   3/100/ 9
BUOY 41010       NOT AVBL
ST AUGUSTINE FL  2000   81 85   10/ 11/ 13 1016.5F


$$




USA.gov is the U.S. government's official web portal to all federal, state and local government web resources and services.